QPF
0.01 0.00 0.00 0.00 0.00 0.00 0.00 0.01 0.01 0.01 0.01 0.01 0.01 0.00 0.01 0.01 0.01 0.01 0.01 0.02 0.02 0.03 0.04 0.04 0.04 0.04 0.04 0.03 0.02 0.02 0.01 0.01 0.01 0.01 0.01 0.01 0.01 0.02
0.00 0.00 0.00 0.00 0.00 0.01 0.00 0.00 0.01 0.01 0.01 0.01 0.01 0.01 0.01 0.01 0.01 0.01 0.01 0.01 0.02 0.02 0.03 0.04 0.04 0.04 0.04 0.04 0.03 0.02 0.01 0.01 0.01 0.01 0.01 0.01 0.01 0.01
0.00 0.00 0.00 0.00 0.01 0.01 0.01 0.01 0.01 0.01 0.01 0.01 0.01 0.01 0.01 0.01 0.01 0.01 0.01 0.01 0.01 0.01 0.02 0.02 0.03 0.04 0.03 0.03 0.02 0.02 0.01 0.01 0.01 0.01 0.01 0.01 0.01 0.01
0.01 0.01 0.01 0.01 0.01 0.01 0.00 0.00 0.00 0.00 0.00 0.01 0.01 0.01 0.01 0.01 0.01 0.01 0.01 0.01 0.01 0.01 0.01 0.02 0.03 0.04 0.04 0.03 0.03 0.02 0.01 0.01 0.01 0.01 0.01 0.01 0.01 0.01
0.01 0.01 0.01 0.01 0.01 0.01 0.01 0.01 0.01 0.01 0.01 0.01 0.01 0.01 0.01 0.01 0.01 0.00 0.00 0.01 0.01 0.01 0.01 0.01 0.02 0.02 0.03 0.03 0.03 0.02 0.01 0.01 0.01 0.01 0.01 0.01 0.01 0.01
0.01 0.01 0.01 0.01 0.01 0.01 0.01 0.01 0.01 0.01 0.01 0.01 0.01 0.00 0.00 0.00 0.00 0.00 0.00 0.00 0.01 0.01 0.01 0.01 0.02 0.02 0.02 0.02 0.02 0.01 0.01 0.01 0.02 0.02 0.01 0.01 0.01 0.01
0.02 0.01 0.01 0.02 0.02 0.01 0.01 0.01 0.01 0.00 0.00 0.00 0.00 0.00 0.00 0.00 0.00 0.00 0.00 0.00 0.01 0.01 0.01 0.01 0.01 0.02 0.02 0.01 0.01 0.01 0.01 0.01 0.01 0.02 0.02 0.02 0.01 0.01
0.02 0.02 0.02 0.02 0.02 0.01 0.01 0.01 0.01 0.01 0.01 0.00 0.00 0.00 0.00 0.00 0.00 0.00 0.00 0.01 0.01 0.01 0.01 0.01 0.01 0.02 0.01 0.01 0.01 0.01 0.01 0.01 0.02 0.02 0.02 0.02 0.02 0.02
0.02 0.02 0.02 0.02 0.01 0.01 0.01 0.01 0.01 0.01 0.00 0.00 0.00 0.00 0.00 0.00 0.00 0.01 0.01 0.01 0.01 0.01 0.03 0.03 0.02 0.02 0.01 0.01 0.01 0.01 0.01 0.01 0.01 0.01 0.02 0.02 0.02 0.03
0.02 0.02 0.01 0.01 0.01 0.02 0.02 0.01 0.01 0.01 0.00 0.00 0.00 0.00 0.00 0.00 0.01 0.01 0.01 0.01 0.01 0.02 0.03 0.04 0.03 0.02 0.02 0.01 0.01 0.01 0.01 0.01 0.02 0.02 0.02 0.02 0.02 0.02
0.01 0.01 0.01 0.01 0.01 0.02 0.02 0.02 0.02 0.01 0.01 0.01 0.00 0.00 0.00 0.01 0.01 0.01 0.01 0.02 0.02 0.02 0.02 0.02 0.02 0.02 0.02 0.02 0.01 0.01 0.01 0.01 0.01 0.02 0.02 0.02 0.03 0.03
0.01 0.01 0.02 0.02 0.02 0.02 0.02 0.02 0.02 0.02 0.01 0.01 0.01 0.01 0.01 0.01 0.01 0.01 0.01 0.02 0.02 0.03 0.02 0.02 0.02 0.02 0.03 0.02 0.01 0.01 0.01 0.01 0.02 0.02 0.02 0.03 0.03 0.02
0.01 0.01 0.01 0.02 0.02 0.02 0.02 0.01 0.01 0.02 0.02 0.01 0.01 0.01 0.01 0.01 0.01 0.01 0.01 0.02 0.03 0.03 0.02 0.02 0.03 0.03 0.03 0.02 0.01 0.01 0.02 0.02 0.01 0.01 0.02 0.02 0.02 0.02
0.02 0.02 0.02 0.02 0.02 0.02 0.02 0.02 0.03 0.02 0.02 0.02 0.02 0.01 0.01 0.01 0.01 0.01 0.01 0.02 0.02 0.03 0.03 0.03 0.03 0.03 0.03 0.02 0.02 0.01 0.01 0.01 0.01 0.01 0.01 0.01 0.01 0.01
0.03 0.03 0.03 0.02 0.02 0.02 0.02 0.02 0.03 0.02 0.02 0.02 0.02 0.01 0.01 0.01 0.01 0.01 0.01 0.01 0.01 0.02 0.02 0.02 0.02 0.02 0.03 0.03 0.02 0.01 0.01 0.02 0.02 0.01 0.01 0.01 0.01 0.01
0.04 0.03 0.03 0.02 0.02 0.02 0.02 0.02 0.03 0.02 0.02 0.02 0.02 0.01 0.01 0.01 0.01 0.01 0.01 0.01 0.01 0.02 0.02 0.02 0.02 0.01 0.01 0.01 0.01 0.01 0.02 0.02 0.01 0.01 0.01 0.01 0.01 0.01
0.04 0.03 0.03 0.02 0.02 0.02 0.02 0.02 0.03 0.03 0.02 0.02 0.02 0.01 0.01 0.01 0.01 0.01 0.01 0.01 0.01 0.01 0.01 0.02 0.02 0.01 0.01 0.01 0.01 0.01 0.02 0.02 0.01 0.01 0.01 0.01 0.01 0.02
0.04 0.04 0.04 0.03 0.03 0.02 0.02 0.02 0.03 0.04 0.03 0.02 0.02 0.02 0.02 0.01 0.02 0.02 0.02 0.02 0.01 0.01 0.01 0.01 0.02 0.02 0.02 0.02 0.01 0.01 0.02 0.02 0.02 0.02 0.01 0.01 0.02 0.02
0.04 0.03 0.03 0.02 0.02 0.02 0.02 0.02 0.02 0.03 0.04 0.03 0.02 0.01 0.02 0.02 0.02 0.02 0.02 0.02 0.01 0.01 0.01 0.01 0.02 0.03 0.03 0.02 0.03 0.02 0.02 0.02 0.02 0.02 0.02 0.01 0.02 0.02
0.02 0.02 0.02 0.02 0.01 0.02 0.02 0.02 0.02 0.02 0.03 0.04 0.02 0.02 0.02 0.02 0.02 0.02 0.02 0.02 0.02 0.01 0.01 0.01 0.02 0.02 0.03 0.03 0.03 0.02 0.02 0.02 0.02 0.02 0.02 0.01 0.01 0.01
0.02 0.01 0.01 0.02 0.02 0.02 0.02 0.02 0.02 0.02 0.02 0.04 0.04 0.02 0.02 0.02 0.02 0.02 0.02 0.02 0.02 0.02 0.02 0.02 0.02 0.02 0.02 0.02 0.02 0.01 0.01 0.02 0.02 0.02 0.02 0.02 0.01 0.01
0.01 0.01 0.02 0.02 0.02 0.01 0.01 0.02 0.02 0.02 0.02 0.03 0.04 0.04 0.03 0.03 0.03 0.02 0.02 0.02 0.02 0.02 0.01 0.01 0.01 0.02 0.02 0.02 0.02 0.01 0.01 0.01 0.01 0.01 0.01 0.02 0.03 0.03
0.01 0.01 0.01 0.01 0.02 0.01 0.01 0.01 0.01 0.02 0.02 0.02 0.02 0.03 0.03 0.03 0.02 0.02 0.02 0.02 0.02 0.01 0.01 0.01 0.01 0.01 0.01 0.02 0.02 0.02 0.02 0.01 0.01 0.01 0.01 0.01 0.01 0.01
MSLP
1022.47 1023.06 1023.67 1024.26 1024.83 1025.34 1025.80 1026.21 1026.57 1026.90 1027.19 1027.46 1027.71 1027.94 1028.13 1028.30 1028.43 1028.55 1028.66 1028.78 1028.92 1029.10 1029.31 1029.56 1029.82 1030.07 1030.31 1030.50 1030.65 1030.75 1030.81 1030.83 1030.84 1030.84 1030.84 1030.85 1030.85 1030.86
1022.28 1022.79 1023.31 1023.82 1024.31 1024.77 1025.21 1025.63 1026.03 1026.42 1026.79 1027.14 1027.46 1027.74 1027.98 1028.17 1028.33 1028.46 1028.59 1028.72 1028.88 1029.07 1029.30 1029.55 1029.82 1030.09 1030.33 1030.53 1030.68 1030.78 1030.85 1030.90 1030.93 1030.97 1031.01 1031.05 1031.09 1031.12
1022.08 1022.54 1022.99 1023.43 1023.87 1024.30 1024.74 1025.18 1025.62 1026.05 1026.48 1026.89 1027.26 1027.58 1027.85 1028.06 1028.23 1028.37 1028.49 1028.62 1028.78 1028.98 1029.22 1029.47 1029.74 1030.00 1030.24 1030.43 1030.58 1030.68 1030.76 1030.83 1030.89 1030.96 1031.04 1031.12 1031.20 1031.26
1021.84 1022.26 1022.67 1023.08 1023.50 1023.92 1024.37 1024.82 1025.30 1025.78 1026.25 1026.69 1027.10 1027.44 1027.72 1027.94 1028.10 1028.23 1028.35 1028.48 1028.64 1028.83 1029.06 1029.32 1029.57 1029.82 1030.04 1030.22 1030.35 1030.46 1030.55 1030.63 1030.72 1030.82 1030.94 1031.07 1031.18 1031.28
1021.53 1021.94 1022.34 1022.74 1023.16 1023.59 1024.05 1024.53 1025.03 1025.54 1026.03 1026.50 1026.91 1027.26 1027.54 1027.75 1027.90 1028.03 1028.14 1028.27 1028.42 1028.62 1028.84 1029.08 1029.32 1029.54 1029.74 1029.90 1030.02 1030.12 1030.21 1030.31 1030.42 1030.56 1030.72 1030.89 1031.05 1031.18
1021.15 1021.56 1021.96 1022.38 1022.80 1023.25 1023.72 1024.22 1024.74 1025.26 1025.76 1026.22 1026.63 1026.97 1027.24 1027.44 1027.59 1027.72 1027.83 1027.96 1028.12 1028.31 1028.53 1028.76 1028.98 1029.19 1029.36 1029.50 1029.61 1029.70 1029.79 1029.89 1030.03 1030.20 1030.39 1030.60 1030.80 1030.98
1020.72 1021.13 1021.54 1021.96 1022.40 1022.86 1023.34 1023.84 1024.35 1024.86 1025.34 1025.79 1026.18 1026.50 1026.76 1026.97 1027.13 1027.27 1027.40 1027.55 1027.73 1027.93 1028.15 1028.38 1028.59 1028.78 1028.93 1029.05 1029.14 1029.22 1029.31 1029.42 1029.58 1029.77 1030.00 1030.25 1030.49 1030.71
1020.25 1020.66 1021.07 1021.49 1021.92 1022.38 1022.84 1023.32 1023.81 1024.29 1024.74 1025.16 1025.53 1025.84 1026.10 1026.32 1026.50 1026.68 1026.85 1027.04 1027.25 1027.48 1027.71 1027.94 1028.15 1028.33 1028.47 1028.57 1028.65 1028.73 1028.82 1028.94 1029.11 1029.33 1029.58 1029.86 1030.15 1030.41
1019.78 1020.17 1020.57 1020.97 1021.38 1021.81 1022.24 1022.68 1023.12 1023.54 1023.96 1024.34 1024.69 1024.99 1025.27 1025.51 1025.74 1025.97 1026.20 1026.44 1026.70 1026.96 1027.23 1027.47 1027.69 1027.86 1028.00 1028.10 1028.18 1028.25 1028.35 1028.49 1028.67 1028.91 1029.19 1029.50 1029.81 1030.11
1019.31 1019.68 1020.06 1020.43 1020.80 1021.17 1021.55 1021.93 1022.31 1022.68 1023.04 1023.39 1023.72 1024.03 1024.33 1024.61 1024.90 1025.19 1025.48 1025.79 1026.10 1026.42 1026.71 1026.98 1027.21 1027.39 1027.54 1027.64 1027.73 1027.82 1027.94 1028.09 1028.30 1028.55 1028.85 1029.18 1029.52 1029.85
1018.87 1019.22 1019.55 1019.88 1020.21 1020.52 1020.84 1021.15 1021.47 1021.78 1022.10 1022.41 1022.73 1023.05 1023.38 1023.71 1024.05 1024.41 1024.77 1025.14 1025.50 1025.85 1026.18 1026.47 1026.72 1026.93 1027.09 1027.22 1027.33 1027.45 1027.60 1027.78 1028.00 1028.28 1028.60 1028.94 1029.29 1029.63
1018.47 1018.78 1019.08 1019.37 1019.64 1019.91 1020.16 1020.42 1020.68 1020.94 1021.22 1021.52 1021.83 1022.17 1022.52 1022.89 1023.28 1023.69 1024.10 1024.51 1024.91 1025.30 1025.65 1025.96 1026.23 1026.46 1026.65 1026.81 1026.97 1027.13 1027.31 1027.53 1027.78 1028.08 1028.41 1028.76 1029.12 1029.46
1018.09 1018.37 1018.64 1018.89 1019.13 1019.36 1019.57 1019.79 1020.01 1020.24 1020.50 1020.78 1021.10 1021.45 1021.82 1022.22 1022.65 1023.08 1023.52 1023.95 1024.36 1024.75 1025.11 1025.44 1025.73 1025.98 1026.20 1026.41 1026.61 1026.82 1027.06 1027.31 1027.61 1027.92 1028.27 1028.62 1028.97 1029.31
1017.72 1017.98 1018.22 1018.46 1018.68 1018.88 1019.08 1019.28 1019.49 1019.71 1019.97 1020.25 1020.57 1020.93 1021.31 1021.73 1022.15 1022.59 1023.02 1023.44 1023.85 1024.23 1024.58 1024.90 1025.20 1025.48 1025.74 1026.00 1026.26 1026.52 1026.81 1027.11 1027.44 1027.78 1028.13 1028.48 1028.82 1029.14
1017.34 1017.58 1017.82 1018.05 1018.26 1018.47 1018.67 1018.88 1019.10 1019.33 1019.60 1019.89 1020.22 1020.58 1020.97 1021.37 1021.78 1022.19 1022.60 1022.99 1023.36 1023.71 1024.04 1024.36 1024.67 1024.97 1025.26 1025.57 1025.88 1026.21 1026.54 1026.89 1027.25 1027.60 1027.96 1028.30 1028.63 1028.93
1016.95 1017.17 1017.39 1017.62 1017.85 1018.08 1018.30 1018.53 1018.77 1019.04 1019.32 1019.63 1019.97 1020.33 1020.71 1021.09 1021.47 1021.85 1022.20 1022.55 1022.88 1023.19 1023.50 1023.81 1024.12 1024.44 1024.78 1025.13 1025.49 1025.87 1026.25 1026.64 1027.02 1027.38 1027.73 1028.06 1028.37 1028.65
1016.54 1016.73 1016.95 1017.18 1017.41 1017.66 1017.91 1018.17 1018.45 1018.74 1019.05 1019.38 1019.73 1020.08 1020.44 1020.80 1021.15 1021.48 1021.79 1022.09 1022.38 1022.67 1022.96 1023.26 1023.58 1023.93 1024.30 1024.70 1025.10 1025.52 1025.94 1026.35 1026.74 1027.11 1027.45 1027.76 1028.05 1028.31
1016.14 1016.29 1016.48 1016.70 1016.93 1017.18 1017.45 1017.74 1018.04 1018.36 1018.69 1019.03 1019.38 1019.74 1020.08 1020.41 1020.73 1021.03 1021.31 1021.58 1021.85 1022.13 1022.42 1022.74 1023.08 1023.46 1023.87 1024.30 1024.75 1025.20 1025.64 1026.06 1026.46 1026.82 1027.14 1027.43 1027.68 1027.92
1015.79 1015.89 1016.03 1016.21 1016.42 1016.66 1016.93 1017.22 1017.53 1017.85 1018.19 1018.54 1018.89 1019.23 1019.56 1019.88 1020.18 1020.47 1020.74 1021.02 1021.29 1021.58 1021.90 1022.25 1022.63 1023.05 1023.50 1023.97 1024.45 1024.93 1025.38 1025.81 1026.19 1026.54 1026.84 1027.10 1027.33 1027.53
1015.54 1015.58 1015.65 1015.78 1015.94 1016.14 1016.38 1016.64 1016.93 1017.24 1017.56 1017.90 1018.23 1018.57 1018.89 1019.21 1019.51 1019.81 1020.10 1020.40 1020.71 1021.05 1021.41 1021.82 1022.25 1022.72 1023.22 1023.73 1024.23 1024.73 1025.19 1025.61 1025.99 1026.31 1026.59 1026.82 1027.02 1027.19
1015.45 1015.41 1015.41 1015.45 1015.54 1015.68 1015.85 1016.06 1016.31 1016.57 1016.86 1017.17 1017.48 1017.80 1018.12 1018.44 1018.76 1019.09 1019.42 1019.77 1020.14 1020.54 1020.98 1021.45 1021.95 1022.48 1023.02 1023.57 1024.10 1024.61 1025.07 1025.49 1025.86 1026.16 1026.42 1026.62 1026.80 1026.94
1015.55 1015.42 1015.34 1015.30 1015.31 1015.36 1015.45 1015.58 1015.75 1015.96 1016.19 1016.45 1016.73 1017.03 1017.34 1017.67 1018.02 1018.38 1018.77 1019.18 1019.62 1020.10 1020.61 1021.15 1021.72 1022.31 1022.90 1023.48 1024.04 1024.56 1025.03 1025.45 1025.80 1026.10 1026.34 1026.53 1026.68 1026.80
1015.83 1015.64 1015.48 1015.35 1015.27 1015.23 1015.23 1015.27 1015.36 1015.49 1015.65 1015.86 1016.09 1016.36 1016.67 1017.00 1017.37 1017.77 1018.21 1018.68 1019.20 1019.75 1020.33 1020.94 1021.57 1022.20 1022.83 1023.44 1024.02 1024.55 1025.03 1025.45 1025.80 1026.10 1026.33 1026.51 1026.65 1026.75
Thickness
5538 5537 5536 5535 5534 5532 5531 5528 5524 5519 5518 5518 5518 5519 5519 5518 5518 5517 5517 5516 5515 5515 5513 5513 5511 5510 5508 5507 5505 5503 5501 5500 5498 5497 5496 5494 5493 5492
5530 5529 5528 5527 5526 5524 5522 5520 5519 5516 5512 5511 5510 5510 5509 5508 5508 5507 5506 5506 5505 5504 5503 5502 5500 5499 5497 5495 5493 5491 5489 5487 5486 5484 5482 5481 5479 5478
5522 5521 5520 5519 5517 5516 5514 5512 5510 5508 5504 5501 5500 5499 5499 5498 5497 5496 5496 5495 5494 5493 5492 5491 5489 5488 5485 5483 5481 5479 5476 5474 5472 5471 5469 5468 5466 5465
5514 5513 5512 5511 5509 5507 5505 5503 5501 5499 5496 5493 5490 5488 5488 5487 5487 5486 5485 5484 5483 5482 5481 5480 5478 5476 5473 5471 5468 5466 5464 5461 5459 5458 5456 5455 5454 5452
5506 5505 5504 5502 5500 5498 5497 5495 5493 5491 5488 5485 5481 5479 5477 5476 5475 5475 5474 5473 5472 5471 5469 5468 5465 5463 5460 5458 5456 5454 5452 5450 5448 5447 5445 5444 5442 5441
5496 5496 5496 5495 5493 5491 5489 5486 5484 5481 5478 5475 5472 5469 5467 5466 5464 5463 5462 5461 5460 5459 5457 5455 5453 5450 5448 5446 5444 5442 5440 5438 5437 5436 5434 5433 5432 5431
5487 5487 5487 5486 5485 5483 5481 5478 5475 5472 5468 5465 5462 5459 5457 5455 5453 5452 5451 5450 5449 5447 5445 5443 5441 5439 5437 5435 5433 5431 5429 5428 5427 5426 5425 5424 5422 5421
5478 5477 5477 5477 5476 5474 5473 5471 5468 5465 5461 5457 5454 5451 5449 5446 5443 5440 5438 5436 5436 5436 5432 5432 5430 5428 5426 5424 5423 5421 5420 5418 5417 5416 5415 5414 5413 5412
5469 5469 5468 5467 5466 5464 5463 5460 5458 5456 5454 5451 5446 5444 5440 5438 5434 5430 5427 5425 5424 5423 5419 5420 5419 5418 5416 5414 5413 5412 5410 5409 5408 5407 5406 5405 5404 5404
5460 5459 5458 5457 5456 5455 5453 5450 5448 5446 5444 5442 5439 5436 5433 5429 5425 5422 5418 5415 5413 5411 5407 5407 5408 5407 5407 5406 5404 5403 5402 5401 5399 5399 5398 5397 5396 5396
5450 5450 5449 5448 5448 5446 5443 5440 5438 5436 5434 5432 5429 5426 5423 5419 5415 5411 5407 5403 5402 5402 5398 5396 5398 5397 5398 5398 5397 5395 5393 5392 5391 5391 5390 5389 5389 5388
5441 5440 5440 5439 5438 5436 5434 5432 5429 5427 5424 5421 5418 5415 5412 5408 5405 5402 5399 5394 5392 5391 5390 5387 5386 5385 5388 5391 5388 5386 5385 5384 5383 5383 5382 5381 5380 5379
5431 5430 5430 5430 5429 5427 5425 5423 5421 5418 5414 5411 5408 5405 5402 5398 5395 5393 5390 5387 5384 5382 5381 5379 5377 5375 5374 5378 5380 5379 5377 5376 5376 5375 5374 5373 5372 5370
5422 5421 5421 5421 5420 5418 5416 5414 5412 5408 5405 5402 5398 5395 5392 5389 5386 5384 5381 5379 5377 5375 5373 5371 5369 5367 5366 5366 5369 5370 5369 5368 5368 5367 5366 5365 5364 5362
5412 5412 5411 5411 5409 5408 5406 5404 5402 5398 5395 5392 5389 5386 5383 5380 5377 5374 5372 5370 5368 5367 5365 5364 5362 5361 5359 5358 5359 5360 5360 5361 5360 5359 5358 5357 5356 5354
5401 5401 5401 5400 5399 5397 5396 5393 5392 5389 5387 5384 5381 5377 5373 5370 5367 5365 5363 5361 5359 5358 5357 5356 5355 5353 5352 5352 5351 5352 5351 5350 5352 5351 5350 5350 5348 5346
5391 5390 5389 5389 5387 5385 5383 5382 5380 5378 5376 5373 5370 5367 5364 5361 5358 5356 5353 5351 5349 5348 5348 5348 5347 5346 5346 5345 5345 5346 5345 5343 5343 5342 5342 5343 5343 5340
5380 5379 5378 5377 5376 5374 5373 5370 5368 5367 5365 5363 5360 5358 5355 5351 5349 5347 5345 5343 5341 5341 5340 5339 5339 5339 5339 5339 5339 5339 5337 5336 5336 5335 5333 5333 5336 5335
5369 5368 5367 5366 5365 5363 5362 5360 5358 5356 5354 5352 5351 5348 5346 5343 5340 5338 5336 5335 5334 5333 5332 5330 5329 5328 5328 5330 5332 5331 5329 5329 5328 5328 5326 5325 5326 5328
5357 5357 5356 5355 5354 5353 5351 5349 5348 5346 5344 5343 5341 5339 5336 5334 5331 5330 5328 5327 5326 5325 5324 5322 5321 5320 5319 5320 5321 5323 5322 5321 5320 5320 5319 5319 5319 5320
5347 5346 5345 5344 5343 5342 5341 5339 5338 5337 5335 5333 5332 5330 5328 5326 5324 5322 5321 5321 5319 5317 5316 5315 5314 5313 5312 5310 5311 5314 5315 5314 5312 5311 5311 5310 5311 5313
5336 5336 5335 5334 5334 5333 5331 5330 5328 5327 5326 5325 5323 5321 5320 5318 5316 5315 5314 5312 5310 5309 5308 5307 5306 5305 5303 5302 5303 5304 5306 5307 5306 5305 5304 5303 5301 5302
5326 5326 5325 5325 5324 5323 5322 5320 5319 5318 5317 5316 5315 5313 5312 5310 5309 5307 5306 5304 5302 5301 5299 5298 5297 5296 5295 5294 5293 5294 5295 5296 5297 5297 5298 5297 5296 5295